Regional Weather Roundup
Issued by NWS

Home | Current Version | Previous Version | Graphics & Text | Print | Product List | Glossary Off
Versions: 1 2 3 4 5 6 7 8 9 10 11 12 13 14 15 16 17 18 19 20 21 22 23 24 25 26 27 28 29 30 31 32 33 34 35 36 37 38 39 40 41 42 43 44 45 46 47 48 49 50

000
ASUS43 KMKX 270621
RWRWI

WISCONSIN REGIONAL WEATHER ROUNDUP
NATIONAL WEATHER SERVICE MILWAUKEE/SULLIVAN WI
100 AM CDT MON APR 27 2015

NOTE: "FAIR" INDICATES FEW OR NO CLOUDS BELOW 12,000 FEET WITH NO
SIGNIFICANT WEATHER AND/OR OBSTRUCTIONS TO VISIBILITY.

WIZ001-002-006>008-014>016-023>028-270700-
NORTHWEST WISCONSIN

CITY           SKY/WX    TMP DP  RH WIND       PRES   REMARKS
SUPERIOR ARPT  CLEAR     28  27  95 CALM      30.20S
6HR MIN TEMP:  28; 6HR MAX TEMP:  41;

ASHLAND        CLEAR     29  28  96 SW3       30.20R
6HR MIN TEMP:  29; 6HR MAX TEMP:  46;

HAYWARD        CLEAR     31  24  75 CALM      30.17S
6HR MIN TEMP:  31; 6HR MAX TEMP:  53;

SIREN          CLEAR     34  26  71 CALM      30.18S
6HR MIN TEMP:  32; 6HR MAX TEMP:  58;

CUMBERLAND     CLEAR     37  27  65 N6        30.16S WCI  33
RICE LAKE      CLEAR     33  29  85 CALM      30.18R
6HR MIN TEMP:  33; 6HR MAX TEMP:  56;

CHETEK         CLEAR     39  31  71 CALM      30.16R
6HR MIN TEMP:  39; 6HR MAX TEMP:  57;

LADYSMITH      CLEAR     38  26  62 N6        30.17R WCI  33
6HR MIN TEMP:  37; 6HR MAX TEMP:  55;

EAU CLAIRE     CLEAR     42  24  49 N8        30.14R
6HR MIN TEMP:  41; 6HR MAX TEMP:  61;

MENOMONIE      CLEAR     44  24  45 CALM      30.16R
6HR MIN TEMP:  44; 6HR MAX TEMP:  62;

NEW RICHMOND   CLEAR     37  28  71 NE5       30.17R WCI  33
6HR MIN TEMP:  37; 6HR MAX TEMP:  60;

OSCEOLA        CLEAR     37  28  71 CALM      30.20R
6HR MIN TEMP:  37; 6HR MAX TEMP:  60;

$$

WIZ003>005-009-010-017-018-270700-
NORTH CENTRAL WISCONSIN

CITY           SKY/WX    TMP DP  RH WIND       PRES   REMARKS
MANITOWISH WTR CLEAR     30  28  92 CALM      30.14S
6HR MIN TEMP:  30; 6HR MAX TEMP:  48;

ARBOR VITAE    CLEAR     36  30  79 N3        30.14S
6HR MIN TEMP:  32; 6HR MAX TEMP:  52;

WOODRUFF       CLEAR     36  30  79 N3        30.14S
6HR MIN TEMP:  32; 6HR MAX TEMP:  52;

RHINELANDER    CLEAR     37  27  67 N3        30.14R
6HR MIN TEMP:  37; 6HR MAX TEMP:  52;

EAGLE RIVER    CLEAR     33  26  74 CALM      30.13S
6HR MIN TEMP:  32; 6HR MAX TEMP:  49;

LAND O LAKES   CLEAR     30  27  87 CALM      30.14S
6HR MIN TEMP:  30; 6HR MAX TEMP:  48;

PHILLIPS       CLEAR     32  25  75 NE7       30.14S WCI  26
6HR MIN TEMP:  32; 6HR MAX TEMP:  50;

TOMAHAWK       CLEAR     30  26  85 CALM      30.14S
6HR MIN TEMP:  30; 6HR MAX TEMP:  53;

MEDFORD        CLEAR     38  28  69 NE7       30.13R WCI  32
6HR MIN TEMP:  38; 6HR MAX TEMP:  54;

MERRILL        CLEAR     36  29  78 CALM      30.13R
6HR MIN TEMP:  35; 6HR MAX TEMP:  55;

$$

WIZ029-030-035-036-043>047-270700-
CENTRAL WISCONSIN

CITY           SKY/WX    TMP DP  RH WIND       PRES   REMARKS
WAUSAU         CLEAR     42  30  62 CALM      30.11R
6HR MIN TEMP:  42; 6HR MAX TEMP:  58;

MOSINEE        CLEAR     41  30  65 NE3       30.13S
MARSHFIELD     CLEAR     42  28  57 NE6       30.12R
6HR MIN TEMP:  42; 6HR MAX TEMP:  60;

STEVENS POINT  CLEAR     34  26  72 CALM      30.13R
6HR MIN TEMP:  34; 6HR MAX TEMP:  58;

WAUPACA        CLEAR     38  32  79 N3        30.12S
6HR MIN TEMP:  38; 6HR MAX TEMP:  60;

WAUTOMA        CLEAR     36  29  76 CALM      30.12S
6HR MIN TEMP:  36; 6HR MAX TEMP:  62;

WISC RAPIDS    CLEAR     42  27  55 NE3       30.13R
6HR MIN TEMP:  42; 6HR MAX TEMP:  61;

CAMP DOUGLAS   CLEAR     40  28  62 NE1       30.11R
6HR MIN TEMP:  40; 6HR MAX TEMP:  60;

$$

WIZ011>013-019>022-031-037>040-048>050-270700-
NORTHEAST WISCONSIN

CITY           SKY/WX    TMP DP  RH WIND       PRES   REMARKS
ANTIGO         CLEAR     35  29  80 N7        30.12R WCI  29
SHAWANO        CLEAR     38  32  81 CALM      30.11S
6HR MIN TEMP:  37; 6HR MAX TEMP:  56;

OCONTO         PTCLDY    39  30  71 NW3       30.10S
6HR MIN TEMP:  35; 6HR MAX TEMP:  48;

STURGEON BAY   CLEAR     41  28  60 N10       30.11S
6HR MIN TEMP:  41; 6HR MAX TEMP:  50;

GREEN BAY      CLEAR     40  33  76 NW6       30.10S
6HR MIN TEMP:  39; 6HR MAX TEMP:  53;

MANITOWOC      CLOUDY    40  31  70 N7        30.09S
6HR MIN TEMP:  39; 6HR MAX TEMP:  48;

APPLETON       CLEAR     39  28  65 N6        30.10F WCI  35
CLINTONVILLE   CLEAR     36  32  87 NW6       30.11S WCI  31
OSHKOSH        CLEAR     39  31  72 CALM      30.10S
6HR MIN TEMP:  39; 6HR MAX TEMP:  57;

$$

WIZ032>034-041-042-053>061-270700-
SOUTHWEST WISCONSIN

CITY           SKY/WX    TMP DP  RH WIND       PRES   REMARKS
LA CROSSE      CLEAR     47  28  47 NW6       30.12R
6HR MIN TEMP:  45; 6HR MAX TEMP:  63;

SPARTA         CLEAR     45  28  52 N6        30.12R
6HR MIN TEMP:  40; 6HR MAX TEMP:  60;

VIROQUA        CLEAR     42  29  60 N8        30.10R
6HR MIN TEMP:  42; 6HR MAX TEMP:  58;

BOSCOBEL       CLEAR     35  31  85 CALM      30.09R
6HR MIN TEMP:  35; 6HR MAX TEMP:  62;

PRAIRIE DU CHI CLEAR     41  32  69 W3        30.09R
6HR MIN TEMP:  41; 6HR MAX TEMP:  60;

PLATTEVILLE    CLEAR     40  29  65 N7        30.07R
6HR MIN TEMP:  40; 6HR MAX TEMP:  58;

$$

WIZ056-057-062-063-064-067-068-270700-
SOUTH CENTRAL WISCONSIN

CITY           SKY/WX    TMP DP  RH WIND       PRES   REMARKS
REEDSBURG      CLEAR     43  30  59 E3        30.11R
6HR MIN TEMP:  43; 6HR MAX TEMP:  58;

BARABOO/DELLS  CLEAR     40  29  64 E6        30.11R
6HR MIN TEMP:  40; 6HR MAX TEMP:  58;

LONE ROCK      CLEAR     44  30  57 E12       30.11R
6HR MIN TEMP:  38; 6HR MAX TEMP:  61;

MINERAL POINT  CLEAR     45  28  53 E12       30.08R
MADISON        CLEAR     40  28  62 E6        30.11R
6HR MIN TEMP:  40; 6HR MAX TEMP:  58;

MIDDLETON      CLEAR     43  28  56 E5        30.11R
6HR MIN TEMP:  43; 6HR MAX TEMP:  60;

WATERTOWN      CLEAR     38  31  78 CALM      30.10R
6HR MIN TEMP:  36; 6HR MAX TEMP:  55;

MONROE         CLEAR     41  30  65 E7        30.09R
JANESVILLE     CLEAR     37  30  75 CALM      30.09R
$$

WIZ051-052-058>065-066-070>072-270700-
SOUTHEAST WISCONSIN

CITY           SKY/WX    TMP DP  RH WIND       PRES   REMARKS
MILWAUKEE      CLEAR     41  30  65 N8        30.09R
6HR MIN TEMP:  41; 6HR MAX TEMP:  45;

WAUKESHA       CLEAR     36  30  80 NW3       30.10S
MILWAUKEE/TIMM CLEAR     37  30  75 NW3       30.09S
RACINE         CLEAR     40  31  70 N12       30.09R WCI  33
6HR MIN TEMP:  40; 6HR MAX TEMP:  45;

BURLINGTON     CLEAR     33  28  80 CALM      30.09R
6HR MIN TEMP:  33; 6HR MAX TEMP:  49;

KENOSHA        CLEAR     40  31  70 N7        30.07S
6HR MIN TEMP:  39; 6HR MAX TEMP:  49;

FOND DU LAC    CLEAR     40  31  70 N3        30.10R
6HR MIN TEMP:  39; 6HR MAX TEMP:  55;

SHEBOYGAN      CLEAR     37  30  75 NW6       30.09R WCI  32
6HR MIN TEMP:  37; 6HR MAX TEMP:  46;

WEST BEND      CLEAR     36  30  80 CALM      30.08S
JUNEAU         CLEAR     37  31  77 CALM      30.11S
6HR MIN TEMP:  37; 6HR MAX TEMP:  56;

$$

LSZ147-162-270700-
LAKE SUPERIOR

STATION/POSITION TIME  TEMP    WIND        PRES    WAVE
                       AIR SEA DIR/SP/G            HT/PER
                 (UTC) (F)     (DEG/KT/KT) (MB)    (FT/S)
W MID LAKE BUOY  0550   37 35  300/  8/  8 1023.4S   1
DEVILS ISLAND    0600   38     330/  3/  3 1023.2R
PORT WING        0540   31     160/  3/  4 1022.7R
SAXON HARBOR     0500   30     180/  2/  2 1022.0
$$

LMZ867-665-643>646-270700-
LAKE MICHIGAN

STATION/POSITION TIME  TEMP    WIND        PRES    WAVE



USA.gov is the U.S. government's official web portal to all federal, state and local government web resources and services.